Regional Weather Roundup
Issued by NWS Wakefield, VA

Home | Current Version | Previous Version | Text Only | Print | Product List | Glossary On
Versions: 1 2 3 4 5 6 7 8 9 10 11 12 13 14 15 16 17 18 19 20 21 22 23 24 25 26 27
000
ASUS41 KAKQ 300015
RWRAKQ

REGIONAL WEATHER ROUNDUP
NATIONAL WEATHER SERVICE WAKEFIELD VA
800 PM EDT WED MAR 29 2017

Note: "fair" indicates few or no clouds below 12,000 feet with no
significant weather and/or obstructions to visibility. * = Denotes
station may not report precipitation (e.g., rain,snow,etc.),
thunder or fog.

VAZ042-051-052>054-056-300100-
NORTHERN VIRGINIA

CITY           SKY/WX    TMP DP  RH WIND       PRES   REMARKS
WASH NATIONAL  PTCLDY    61  38  42 NE13      30.14R
DULLES         PTCLDY    59  36  42 NE8       30.13R
FORT BELVOIR   CLEAR     61  37  40 CALM      30.13R
QUANTICO       PTCLDY    63  37  38 NE7       30.13R
FREDERICKSBRG* CLEAR     62  37  39 N5        30.12R
STAFFORD*      CLEAR     60  33  36 NE3       30.16R
WARRENTON      CLEAR     59  32  35 NE6       30.12R
CULPEPER*      CLEAR     60  38  43 E3        30.13R
MANASSAS*      CLEAR     59  37  44 NE7       30.13R
LEESBURG*      CLEAR     61  37  41 NE5       30.14S
WINCHESTER     CLEAR     55  36  47 E3        30.13R
FRONT ROYAL*   CLEAR     55  37  50 NE6       30.12R
LURAY*         CLEAR     55  41  58 CALM      30.11S
$$

VAZ048-049-060>072-079>083-300100-
CENTRAL AND SOUTH CENTRAL VIRGINIA

CITY           SKY/WX    TMP DP  RH WIND       PRES   REMARKS
RICHMOND       MOCLDY    63  42  46 E5        30.11R
CHESTERFIELD*  FAIR      63  34  34 CALM      30.12R
PETERSBURG*    CLEAR     54  48  80 CALM      30.11R
HANOVER        CLEAR     58  41  53 NE3       30.12R
TAPPAHANNOCK*  CLEAR     59  33  37 NE3       30.13R
QUINTON*       FAIR      60  42  50 NE3       30.11R
CHARLOTTSVILLE MOCLDY    63  37  38 NE6       30.10R
GORDONSVILLE*  PTCLDY    58  41  53 CALM      30.10S
ORANGE*        CLEAR     55  39  54 NE5       30.12S
LOUISA*        PTCLDY    61  45  55 E3        30.10R
BUMPASS*       FAIR      59  37  44 SW3       30.11R
FARMVILLE*     CLEAR     64  48  57 E3        30.07S
CREWE*         FAIR      61  49  65 E5        30.09R
FORT PICKETT*  FAIR      62  40  44 SE5       30.10R
CHASE CITY*    FAIR      63  48  58 CALM      30.08R
CLARKSVILLE*   FAIR      63  50  63 E3        30.07S
SOUTH HILL*    CLEAR     59  51  74 CALM      30.14S
LAWRENCEVILLE* FAIR      62  49  63 CALM      30.10R
EMPORIA*       CLEAR     61  50  67 CALM      30.12R
$$

VAZ088>098-300100-
SOUTHEAST VIRGINIA

CITY           SKY/WX    TMP DP  RH WIND       PRES   REMARKS
NORFOLK        CLEAR     52  44  74 SE5       30.14R
VIRGINIA BEACH PTCLDY    47  42  83 E5        30.14R
NORFOLK NAVAL  PTCLDY    52  45  77 E5        30.15R
WEST POINT*    PTCLDY    55  47  75 SE7       30.15R
SALUDA*        FAIR      54  39  57 NE5       30.13R
NEWPORT NEWS   CLEAR     52  42  69 E3        30.14R
LANGLEY AFB    CLEAR     51  46  83 SE7       30.14R
FORT EUSTIS    CLEAR     55  41  59 E3        30.11R
WILLIAMSBURG*  CLEAR     55  45  67 CALM      30.14R
HR EXEC AP*    FAIR      48  41  76 CALM      30.12R
FRANKLIN*      CLEAR     55  44  66 NE7       30.13R
US460-WAKEFLD  CLEAR     55  45  68 E5        30.12R
$$

VAZ020-022-025-037-045-300100-
WEST CENTRAL AND SOUTHWEST VIRGINIA

CITY           SKY/WX    TMP DP  RH WIND       PRES   REMARKS
STAUNTON*      CLOUDY    61  41  47 NE6       30.12R
WAYNESBORO*    CLOUDY    61  41  47 NE3       30.10S
HOT SPRINGS VA PTCLDY    54  39  58 E7        30.14R
LYNCHBURG      PTCLDY    64  47  53 CALM      30.08R
DANVILLE       CLEAR     63  51  65 CALM      30.05R
SOUTH BOSTON*  FAIR      67  46  48 E3        30.06S
MARTINSVILLE   PTCLDY    66  48  51 SE3       30.07S
ROANOKE        PTCLDY    67  47  48 SE9       30.07R
BLACKSBURG     PTCLDY    64  45  50 E3        30.10R
DUBLIN*        CLOUDY    67  46  46 CALM      30.08R
MARION*        CLEAR     67  45  45 NW3       30.10R
HILLSVILLE*    PTCLDY    62  49  60 S5        30.08R
RICHLANDS*     FAIR      63  49  59 N5        30.08S
WISE*          CLEAR     59  46  63 N3        30.09F
ABINGDON*      CLEAR     70  47  43 CALM      30.06R
$$

MDZ021>025-VAZ099-100-300100-
SOUTHERN MARYLAND AND THE DELMARVA PENINSULA

CITY           SKY/WX    TMP DP  RH WIND       PRES   REMARKS
PATUXENT RIVER PTCLDY    55  39  54 CALM      30.13R
BAY BRIDGE APT CLEAR     54  37  54 N8        30.15R
LEONARDTOWN    CLEAR     52  37  58 CALM      30.16R
DOVER          CLEAR     55  38  52 NW12      30.12R
GEORGETOWN     CLEAR     58  33  39 NW3       30.12R
EASTON         NOT AVBL
CAMBRIDGE      CLEAR     57  34  41 N6        30.14R
SALISBURY      CLEAR     51  40  65 SE3       30.12R
OCEAN CITY     CLEAR     47  41  80 SW5       30.13R
WALLOPS ISLAND CLEAR     45  42  89 S6        30.14R
ACCOMACK*      CLEAR     48  30  50 SE5       30.14R
$$

NCZ012>017-030>032-300100-
NORTH CENTRAL AND EASTERN NORTH CAROLINA

CITY           SKY/WX    TMP DP  RH WIND       PRES   REMARKS
ROANOKE RAPIDS FAIR      61  54  77 CALM      30.10R
RALEIGH        PTCLDY    66  52  60 E5        30.07S
ELIZABETH CITY CLEAR     50  45  83 NE9       30.14R
AHOSKIE*         N/A     59  51  76 CALM      30.13R
EDENTON*       CLEAR     53  48  84 E8        30.15R
CURRITUCK*     CLEAR     50  46  87 E3        30.15R
KILL DEVIL HLS NOT AVBL
MANTEO         CLEAR     48  46  93 E6        30.15R
CAPE HATTERAS  CLEAR     52  47  83 NE8       30.13R
TARBORO*       NOT AVBL
GOLDSBORO      CLEAR     63  57  80 E3        30.07R
WASHINGTON     CLEAR     59  52  78 E7        30.12R
GREENVILLE     MOCLDY    63  54  72 E8        30.12R
NEW BERN       CLEAR     57  52  83 E6        30.12R
WILMINGTON     CLEAR     61  55  81 E6        30.09R
$$

VAZ048-300100-
ELSEWHERE

CITY           SKY/WX    TMP DP  RH WIND       PRES   REMARKS
HARRISBURG PA  PTCLDY    53  29  39 N5        30.18R
BALTIMORE      PTCLDY    56  32  40 N7        30.15R
ANNAPOLIS      CLEAR     58  35  42 N8        30.15R
ANDREWS AFB    CLEAR     55  35  47 N8        30.13R
PHILADELPHIA   CLEAR     55  27  34 N12       30.16R
HENDERSON NC   CLEAR     61  47  58 E3        30.08S
GREENSBORO     PTCLDY    67  51  56 SE6       30.04R
ROCKY MOUNT    CLOUDY    64  55  72 E3        30.09R
$$

VAZ100-300100-
MARINE

STATION/POSITION TIME  TEMP    WIND        PRES    WAVE   SWELL
                       AIR SEA DIR/SP/G            HT/PER HT/PER
                 (UTC) (F)     (DEG/KT/KT) (MB)    (FT/S) (FT/S)
CAPE MAY NJ      2342   51 47  320/  6/  8 1019.3R
LEWES DE         2342   51 48  330/  6/  7 1019.7R
OCEAN-CITY-INLET 2324   46 47  230/  7/  9 1020.4
WACHAPREAGUE VA  2348   49 60  160/  5/  6 1020.4R
THOMAS POINT MD  0000   54 48   20/ 15/ 15   N/A
GOOSES REEF MD   0000   54 47   90/  8/ 10 1021.1    1
COVE POINT MD    2348   54      10/  5/  8 1020.9R
SOLOMONS ISLAND  2348   57 49  340/  3/  3   N/A
BISHOPS HEAD MD  2342   57 58  350/  5/  6 1020.5R
PINEY POINT MD   2336           60/  4/  5   N/A
POTOMAC MD       0000   54 49  320/  2/  2 1019.6    0
CAMBRIDGE MD     2342   56 51  350/  5/  7 1019.5R
LEWISETTA VA     2348   57 56   50/  3/  4 1020.0R
RAPPAHANNOCK LGT 2336          130/  8/  9 1020.8R
STINGRAY PT      2350   52     150/  6/  8 1020.4R
YORK RVR RNG VA  2348   51     160/  9/ 10 1020.0R
YORKTOWN VA      2348   54 53  160/  3/  5 1020.2R
JAMESTOWN VA     0000   56 58  100/  6/  6   N/A     1
DOMINION TERM VA 2348   52      70/  6/  8 1020.6R
KIPTOPEKE VA     2336      53  140/  6/  7   N/A
CAPE HENRY VA    2348   49     140/  5/  7   N/A
WILLOUBY STN VA  2348   51     100/  8/  9 1021.4R
S CRANEY ISL VA  2348   56      40/  4/  5 1020.1R
CAPE HENRY BUOY  2342      51                N/A     4/ 5   2/11
CAPE CHARLES BUO 2351      51                N/A     3/10   2/11
OFFSHORE WE BUOY 2351      50                N/A     4/ 6   2/11
64NM E OF VA BCH 2350   50 50   50/  8/ 10 1020.1R   6/ 7   5/ 7
DUCK PIER NC     2336   49 51   60/ 10/ 11 1020.0R
44100 DUCK FRF   2335      51                N/A     5/ 6   2/11
44056 DUCK FRF   2330      51                N/A     4/10   2/11
OREGON INLET NC  2336   49 57   40/ 10/ 14 1020.1R
HATTERAS NC      2336   53 62   40/  8/ 14 1019.4R
DIAMOND SHLS NC  2350   58 74   30/ 19/ 25 1019.0R   7/10   3/10
CAPE LOOKOUT NC  2300   59      50/ 19/ 21 1018.4R
$$




USA.gov is the U.S. government's official web portal to all federal, state and local government web resources and services.